星链-2558 (STARLINK-2558 )

导读

STARLINK-2558是美国SpaceX星链(Starlink)项目低轨道通信卫星,属Starlink V1.0版本。于北京时间2021年4月29日发射,国际标识2021-036G。它运行于约550公里近地轨道,轨道倾角53.054°,旨在为全球提供高速低延迟互联网服务,目前仍处于在轨工作状态,助力星链构建全球性宽带卫星通信网络。

基本信息
目录编号:
48282
目录名称:
STARLINK-2558
国际标识:
2021-036G
轨道中心:
EARTH
卫星名称:
星链-2558
卫星全名:
星链-2558 (STARLINK-2558 )
卫星状态:
在轨 (已飞行1876 天)
发射日期:
2021-04-29 UTC
国别 :
美国 (US)
星等 :
--
轨道信息
数据来源 国际轨道数据
星历时间: 2026-06-18T02:20:41+0800
21小时前
查看轨道信息
半长轴: 6848.885km
偏心率: 0.0001495
轨道倾角: 53.159°
近地点辐角 84.893°
升交点赤经 329.880°
平近点角 275.224°
近地点: 469.724km
远地点: 471.772km
周期: 94.013分钟
每日圈数: 15.316975
详细信息
固有亮度:
5
最大亮度:
2.5
卫星平台:
Starlink V1.0
覆盖范围:
全球
运营商:
太空探索技术公司
运营商所在国:
美国
制造商(研发单位):
太空探索技术公司
制造商所在国:
美国
使用方式:
暂无
卫星简介
星链(Starlink)计划是由太空探索技术公司(SpaceX)提出的一个巨型低轨卫星互联网星座项目,计划在2019年至2024年间在太空搭建由约1.2万颗卫星组成的“星链”网络,其中1584颗将部署在地球上空550千米处的近地轨道,并从2020年开始工作。该卫星仍在工作。
2D轨道图
3D轨道图
轨道高度分析图
轨道倾角分析图
轨道综合分析图
查看轨道综合分析图